Location: Peebles
(55.6412°N, 3.1714°W)
Time: 14:59:31
(UTC+01:00)

Cosmos 1538 Rocket - Pass Details

Date: 26 September 2021
Orbit: 751 x 792 km, 74.0° (Epoch: 17 October)

Event Time Altitude Azimuth Distance (km) Brightness Sun altitude
Rises 19:48:03 0° 332° (NNW) 3,285 7.8 -7.5°
Reaches altitude 10° 19:50:27 10° 334° (NNW) 2,358 7.0 -7.8°
Maximum altitude 19:55:50 73° 60° (ENE) 830 4.1 -8.6°
Drops below altitude 10° 20:01:12 10° 145° (SE) 2,357 6.1 -9.3°
Enters shadow 20:03:22 - 147° (SSE) 3,190 6.8 -9.6°
